64.0°F
Current conditions from King Hill
Updated every 5 minutes
 
  Thursday August 21, 2014

Station Historical Data
Daily Summary for May 02, 2012 Units:  Metric    English   Both
« Previous Day
Next Day »
Daily Weekly Monthly Yearly Custom
  High: Low: Average:
Temperature: 16.6 °C 6.4 °C 10.6 °C
Dew Point: 9.6 °C 5.4 °C 7.2 °C
Humidity: 95% 59% 80%
Wind Speed: 9.7km/h 0km/h 3.7km/h
Wind Gust: 22.5km/h - -
Wind- - SSE
Pressure: 1020.2 hPa 1016.1 hPa -
Precipitation: 0.3 mm    
Historical Graphs
 
 
Tabular Data for May 02, 2012
Time Temperature Dew Point Pressure Wind Wind Speed Wind Gust Humidity Daily Rainfall
00:04 7.6 °C 5.8 °C 1017.5 hPa Calm     89% 0 mm
00:09 7.6 °C 6 °C 1017.5 hPa Calm     90% 0 mm
00:14 7.5 °C 5.9 °C 1017.5 hPa Calm     90% 0 mm
00:19 7.5 °C 5.9 °C 1017.5 hPa Calm     90% 0 mm
00:24 7.4 °C 5.9 °C 1017.5 hPa Calm     90% 0 mm
00:29 7.4 °C 5.9 °C 1017.5 hPa Calm     90% 0 mm
00:34 7.4 °C 5.9 °C 1017.8 hPa Calm     90% 0 mm
00:39 7.4 °C 5.9 °C 1017.5 hPa Calm     90% 0 mm
00:44 7.4 °C 5.8 °C 1017.5 hPa Calm     90% 0 mm
00:49 7.4 °C 5.9 °C 1017.8 hPa Calm     90% 0 mm
00:54 7.4 °C 5.9 °C 1017.8 hPa Calm     90% 0 mm
00:59 7.4 °C 5.9 °C 1017.8 hPa Calm     90% 0 mm
01:04 7.4 °C 5.9 °C 1017.8 hPa Calm     90% 0 mm
01:09 7.4 °C 5.9 °C 1017.8 hPa Calm     90% 0 mm
01:14 7.4 °C 5.9 °C 1017.8 hPa Calm     90% 0 mm
01:19 7.4 °C 5.9 °C 1017.8 hPa Calm     90% 0 mm
01:24 7.4 °C 5.9 °C 1017.8 hPa Calm     90% 0 mm
01:29 7.5 °C 5.9 °C 1017.8 hPa Calm     90% 0 mm
01:34 7.4 °C 5.9 °C 1017.8 hPa Calm     90% 0 mm
01:39 7.4 °C 5.9 °C 1017.8 hPa Calm     90% 0 mm
01:44 7.4 °C 5.9 °C 1017.5 hPa Calm     90% 0 mm
01:49 7.4 °C 6 °C 1017.5 hPa Calm     91% 0 mm
01:59 7.3 °C 5.7 °C 1017.8 hPa Calm     90% 0 mm
02:04 7.2 °C 5.7 °C 1017.5 hPa Calm     90% 0 mm
02:09 7.2 °C 5.8 °C 1017.5 hPa Calm     91% 0 mm
02:14 7.2 °C 5.8 °C 1017.5 hPa Calm     91% 0 mm
02:19 7.2 °C 5.8 °C 1017.5 hPa Calm     91% 0 mm
02:24 7.1 °C 5.7 °C 1017.5 hPa Calm     91% 0 mm
02:29 7.1 °C 5.7 °C 1017.5 hPa Calm     91% 0 mm
02:34 7.1 °C 5.7 °C 1017.5 hPa Calm     91% 0 mm
02:39 7.1 °C 5.7 °C 1017.5 hPa Calm     91% 0 mm
02:44 7.1 °C 5.7 °C 1017.8 hPa Calm     91% 0 mm
02:49 7.1 °C 5.7 °C 1017.8 hPa Calm     91% 0 mm
02:54 7 °C 5.8 °C 1017.8 hPa Calm     92% 0 mm
02:59 7 °C 5.8 °C 1017.8 hPa Calm     92% 0 mm
03:04 7 °C 5.8 °C 1017.8 hPa Calm     92% 0 mm
03:09 6.9 °C 5.7 °C 1017.8 hPa Calm     92% 0 mm
03:14 6.9 °C 5.7 °C 1017.8 hPa Calm     92% 0 mm
03:19 6.9 °C 5.7 °C 1017.8 hPa Calm     92% 0 mm
03:24 6.9 °C 5.7 °C 1017.8 hPa Calm     92% 0 mm
03:29 6.8 °C 5.6 °C 1017.8 hPa Calm     92% 0 mm
03:34 6.8 °C 5.6 °C 1017.8 hPa Calm     92% 0 mm
03:39 6.8 °C 5.8 °C 1017.8 hPa Calm     93% 0 mm
03:49 6.9 °C 5.8 °C 1017.8 hPa Calm     93% 0 mm
03:54 6.9 °C 5.8 °C 1017.8 hPa Calm     93% 0 mm
03:59 6.8 °C 5.8 °C 1017.8 hPa Calm     93% 0 mm
04:04 6.9 °C 5.8 °C 1017.8 hPa Calm     93% 0 mm
04:09 6.8 °C 5.8 °C 1017.8 hPa Calm     93% 0 mm
04:14 6.8 °C 5.8 °C 1017.8 hPa Calm     93% 0 mm
04:19 6.8 °C 5.7 °C 1018.2 hPa Calm     93% 0 mm
04:24 6.8 °C 5.7 °C 1018.2 hPa Calm     93% 0 mm
04:34 6.7 °C 5.7 °C 1018.2 hPa Calm     93% 0 mm
04:39 6.7 °C 5.7 °C 1018.2 hPa Calm     93% 0 mm
04:44 6.7 °C 5.6 °C 1018.5 hPa Calm     93% 0 mm
04:49 6.6 °C 5.6 °C 1018.2 hPa Calm     93% 0 mm
04:54 6.6 °C 5.6 °C 1018.2 hPa Calm     93% 0 mm
04:59 6.6 °C 5.6 °C 1018.5 hPa Calm   4.8 km/h 93% 0 mm
05:04 6.6 °C 5.5 °C 1018.5 hPa Calm   4.8 km/h 93% 0 mm
05:09 6.5 °C 5.4 °C 1018.5 hPa Calm   3.2 km/h 93% 0 mm
05:14 6.5 °C 5.4 °C 1018.5 hPa Calm   3.2 km/h 93% 0 mm
05:19 6.5 °C 5.6 °C 1018.5 hPa Calm   3.2 km/h 94% 0 mm
05:24 6.5 °C 5.6 °C 1018.5 hPa SE 1.6 km/h 3.2 km/h 94% 0 mm
05:34 6.5 °C 5.6 °C 1018.5 hPa Calm   1.6 km/h 94% 0 mm
05:44 6.4 °C 5.6 °C 1018.5 hPa Calm     94% 0.3 mm
05:54 6.5 °C 5.6 °C 1018.5 hPa Calm   1.6 km/h 94% 0.3 mm
05:59 6.5 °C 5.6 °C 1018.5 hPa Calm   1.6 km/h 94% 0.3 mm
06:04 6.6 °C 5.7 °C 1018.5 hPa Calm   3.2 km/h 94% 0.3 mm
06:09 6.6 °C 5.7 °C 1018.5 hPa Calm   3.2 km/h 94% 0.3 mm
06:14 6.6 °C 5.7 °C 1018.8 hPa Calm     94% 0.3 mm
06:19 6.7 °C 5.8 °C 1018.8 hPa Calm     94% 0.3 mm
06:24 6.7 °C 5.8 °C 1019.2 hPa Calm     94% 0.3 mm
06:29 6.7 °C 5.8 °C 1018.8 hPa Calm     94% 0.3 mm
06:34 6.7 °C 5.8 °C 1018.8 hPa Calm   1.6 km/h 94% 0.3 mm
06:39 6.8 °C 5.9 °C 1018.8 hPa Calm   4.8 km/h 94% 0.3 mm
06:44 6.8 °C 5.9 °C 1019.2 hPa SE 1.6 km/h 4.8 km/h 94% 0.3 mm
06:49 6.7 °C 5.8 °C 1019.2 hPa Calm   4.8 km/h 94% 0.3 mm
06:54 6.7 °C 5.8 °C 1018.8 hPa ESE 1.6 km/h 4.8 km/h 94% 0.3 mm
06:59 6.6 °C 5.9 °C 1019.2 hPa Calm   4.8 km/h 95% 0.3 mm
07:04 6.6 °C 5.8 °C 1018.8 hPa Calm   4.8 km/h 95% 0.3 mm
07:09 6.6 °C 5.9 °C 1019.2 hPa ESE 1.6 km/h 4.8 km/h 95% 0.3 mm
07:14 6.6 °C 5.9 °C 1019.2 hPa Calm   4.8 km/h 95% 0.3 mm
07:19 6.7 °C 5.9 °C 1019.2 hPa ESE 1.6 km/h 4.8 km/h 95% 0.3 mm
07:24 6.7 °C 6 °C 1018.8 hPa Calm   4.8 km/h 95% 0.3 mm
07:29 6.8 °C 6.1 °C 1018.8 hPa ESE 1.6 km/h 6.4 km/h 95% 0.3 mm
07:34 6.8 °C 6.1 °C 1018.8 hPa ESE 1.6 km/h 6.4 km/h 95% 0.3 mm
07:39 6.9 °C 6.2 °C 1019.2 hPa ESE 1.6 km/h 6.4 km/h 95% 0.3 mm
07:44 7 °C 6.3 °C 1019.2 hPa ENE 1.6 km/h 4.8 km/h 95% 0.3 mm
07:49 7 °C 6.3 °C 1019.2 hPa NE 1.6 km/h 8 km/h 95% 0.3 mm
07:54 7 °C 6.3 °C 1019.5 hPa Calm   8 km/h 95% 0.3 mm
07:59 7.2 °C 6.4 °C 1019.9 hPa Calm   4.8 km/h 95% 0.3 mm
08:04 7.2 °C 6.4 °C 1019.9 hPa NE 1.6 km/h 8 km/h 95% 0.3 mm
08:09 7.2 °C 6.4 °C 1019.9 hPa Calm   8 km/h 95% 0.3 mm
08:14 7.2 °C 6.5 °C 1019.9 hPa Calm   3.2 km/h 95% 0.3 mm
08:19 7.2 °C 6.5 °C 1020.2 hPa Calm   4.8 km/h 95% 0.3 mm
08:24 7.2 °C 6.5 °C 1020.2 hPa ENE 1.6 km/h 4.8 km/h 95% 0.3 mm
08:29 7.2 °C 6.5 °C 1019.9 hPa Calm   4.8 km/h 95% 0.3 mm
08:39 7.2 °C 6.5 °C 1019.9 hPa ENE 1.6 km/h 8 km/h 95% 0.3 mm
08:44 7.3 °C 6.6 °C 1019.9 hPa ENE 1.6 km/h 8 km/h 95% 0.3 mm
08:49 7.3 °C 6.6 °C 1019.9 hPa ENE 3.2 km/h 8 km/h 95% 0.3 mm
08:59 7.5 °C 6.8 °C 1019.9 hPa NE 1.6 km/h 9.7 km/h 95% 0.3 mm
09:04 7.7 °C 6.9 °C 1019.9 hPa ENE 1.6 km/h 9.7 km/h 95% 0.3 mm
09:09 7.8 °C 7.1 °C 1019.5 hPa ENE 1.6 km/h 8 km/h 95% 0.3 mm
09:14 7.9 °C 7.2 °C 1019.5 hPa Calm   6.4 km/h 95% 0.3 mm
09:19 8.1 °C 7.2 °C 1019.5 hPa Calm   9.7 km/h 94% 0.3 mm
09:24 8.3 °C 7.4 °C 1019.5 hPa ENE 3.2 km/h 11.3 km/h 94% 0.3 mm
09:29 8.3 °C 7.3 °C 1019.5 hPa East 1.6 km/h 11.3 km/h 93% 0.3 mm
09:34 8.4 °C 7.1 °C 1019.9 hPa Calm   11.3 km/h 91% 0.3 mm
09:39 8.6 °C 7.1 °C 1019.5 hPa ENE 4.8 km/h 11.3 km/h 90% 0.3 mm
09:44 8.9 °C 7.2 °C 1019.5 hPa Calm   11.3 km/h 89% 0.3 mm
09:49 9.1 °C 7.2 °C 1019.5 hPa East 1.6 km/h 9.7 km/h 88% 0.3 mm
09:54 9.2 °C 6.9 °C 1019.5 hPa ENE 4.8 km/h 11.3 km/h 86% 0.3 mm
09:59 9.2 °C 6.9 °C 1019.5 hPa ENE 1.6 km/h 12.9 km/h 86% 0.3 mm
10:04 9.2 °C 7 °C 1019.9 hPa Calm   12.9 km/h 86% 0.3 mm
10:09 9.3 °C 6.9 °C 1019.9 hPa Calm   6.4 km/h 85% 0.3 mm
10:14 9.5 °C 7.1 °C 1019.5 hPa Calm   6.4 km/h 85% 0.3 mm
10:19 9.6 °C 7.1 °C 1019.5 hPa NE 1.6 km/h 6.4 km/h 84% 0.3 mm
10:24 9.7 °C 6.9 °C 1019.5 hPa NE 1.6 km/h 6.4 km/h 83% 0.3 mm
10:29 9.8 °C 7.1 °C 1019.5 hPa NE 1.6 km/h 8 km/h 83% 0.3 mm
10:34 10.1 °C 7.3 °C 1019.5 hPa Calm   9.7 km/h 83% 0.3 mm
10:39 10.3 °C 7.2 °C 1019.5 hPa Calm   9.7 km/h 81% 0.3 mm
10:44 10.5 °C 7.6 °C 1019.5 hPa Calm   6.4 km/h 82% 0.3 mm
10:49 10.6 °C 7.4 °C 1019.5 hPa Calm   1.6 km/h 81% 0.3 mm
10:54 10.6 °C 7.3 °C 1019.5 hPa Calm   1.6 km/h 80% 0.3 mm
10:59 10.6 °C 7.4 °C 1019.5 hPa Calm   1.6 km/h 81% 0.3 mm
11:04 10.7 °C 7.6 °C 1019.5 hPa Calm     81% 0.3 mm
11:09 10.7 °C 7.6 °C 1019.5 hPa Calm     81% 0.3 mm
11:14 10.9 °C 7.8 °C 1019.5 hPa Calm   1.6 km/h 81% 0.3 mm
11:19 11.1 °C 7.7 °C 1019.9 hPa Calm   1.6 km/h 80% 0.3 mm
11:24 11.3 °C 7.9 °C 1019.9 hPa Calm     80% 0.3 mm
11:29 11.6 °C 8.2 °C 1019.9 hPa Calm     80% 0.3 mm
11:34 11.8 °C 8.1 °C 1019.9 hPa Calm   1.6 km/h 78% 0.3 mm
11:44 12.3 °C 8.6 °C 1019.9 hPa Calm   4.8 km/h 78% 0.3 mm
11:49 12.5 °C 8.8 °C 1019.9 hPa Calm   1.6 km/h 78% 0.3 mm
11:54 12.7 °C 8.4 °C 1019.9 hPa Calm   3.2 km/h 75% 0.3 mm
11:59 12.8 °C 8.7 °C 1019.9 hPa Calm   3.2 km/h 76% 0.3 mm
12:04 12.7 °C 8.4 °C 1019.9 hPa Calm   6.4 km/h 75% 0.3 mm
12:09 12.7 °C 8.3 °C 1019.9 hPa Calm   6.4 km/h 75% 0.3 mm
12:14 12.8 °C 8.4 °C 1019.9 hPa ENE 3.2 km/h 8 km/h 75% 0.3 mm
12:19 12.9 °C 8.6 °C 1019.9 hPa NE 3.2 km/h 8 km/h 75% 0.3 mm
12:24 13.3 °C 8.7 °C 1019.5 hPa ENE 4.8 km/h 8 km/h 74% 0.3 mm
12:29 13.4 °C 8.9 °C 1019.5 hPa Calm   12.9 km/h 74% 0.3 mm
12:34 13.4 °C 8.7 °C 1019.5 hPa Calm   12.9 km/h 73% 0.3 mm
12:39 13.6 °C 8.6 °C 1019.5 hPa Calm   8 km/h 72% 0.3 mm
12:44 13.7 °C 8.6 °C 1019.2 hPa Calm   1.6 km/h 71% 0.3 mm
12:49 13.6 °C 8.2 °C 1019.2 hPa Calm   1.6 km/h 70% 0.3 mm
12:54 13.5 °C 8.3 °C 1019.2 hPa Calm   1.6 km/h 71% 0.3 mm
12:59 13.5 °C 8.6 °C 1019.2 hPa NNE 1.6 km/h 4.8 km/h 72% 0.3 mm
13:04 13.9 °C 8.9 °C 1018.8 hPa NNE 1.6 km/h 4.8 km/h 72% 0.3 mm
13:09 14.1 °C 9.2 °C 1018.8 hPa Calm   8 km/h 72% 0.3 mm
13:14 14.2 °C 8.8 °C 1018.8 hPa Calm   8 km/h 70% 0.3 mm
13:19 14.3 °C 8.7 °C 1018.8 hPa Calm   1.6 km/h 69% 0.3 mm
13:24 14.4 °C 8.8 °C 1018.5 hPa Calm   1.6 km/h 69% 0.3 mm
13:29 14.4 °C 8.8 °C 1018.5 hPa NE 3.2 km/h 8 km/h 69% 0.3 mm
13:34 14.3 °C 8.7 °C 1018.5 hPa Calm   8 km/h 69% 0.3 mm
13:44 14.2 °C 8.6 °C 1018.2 hPa Calm   11.3 km/h 69% 0.3 mm
13:49 14.3 °C 8.7 °C 1018.2 hPa NE 3.2 km/h 11.3 km/h 69% 0.3 mm
13:54 14.4 °C 8.4 °C 1018.2 hPa ENE 1.6 km/h 11.3 km/h 67% 0.3 mm
13:59 14.6 °C 8.8 °C 1018.2 hPa Calm   11.3 km/h 68% 0.3 mm
14:04 14.8 °C 8.7 °C 1018.2 hPa NE 3.2 km/h 16.1 km/h 67% 0.3 mm
14:09 14.8 °C 8.6 °C 1018.2 hPa ENE 1.6 km/h 16.1 km/h 66% 0.3 mm
14:14 14.8 °C 8.8 °C 1018.2 hPa Calm   9.7 km/h 67% 0.3 mm
14:19 14.8 °C 8.7 °C 1018.2 hPa Calm   8 km/h 67% 0.3 mm
14:24 15 °C 9.2 °C 1018.2 hPa Calm   6.4 km/h 68% 0.3 mm
14:29 15.5 °C 9.6 °C 1017.8 hPa ESE 1.6 km/h 6.4 km/h 68% 0.3 mm
14:34 15.7 °C 9.2 °C 1017.8 hPa East 3.2 km/h 16.1 km/h 65% 0.3 mm
14:39 15.6 °C 8.6 °C 1017.8 hPa Calm   16.1 km/h 63% 0.3 mm
14:44 15.1 °C 8.3 °C 1017.8 hPa Calm   12.9 km/h 64% 0.3 mm
14:49 15 °C 8.7 °C 1017.8 hPa Calm   12.9 km/h 66% 0.3 mm
14:54 15 °C 8.5 °C 1017.8 hPa NE 1.6 km/h 8 km/h 65% 0.3 mm
14:59 14.9 °C 8.6 °C 1017.8 hPa Calm   8 km/h 66% 0.3 mm
15:04 15 °C 8.5 °C 1017.8 hPa Calm   8 km/h 65% 0.3 mm
15:09 15.1 °C 8.6 °C 1017.5 hPa Calm   3.2 km/h 65% 0.3 mm
15:14 15.2 °C 8.2 °C 1017.5 hPa SE 4.8 km/h 11.3 km/h 63% 0.3 mm
15:19 15.8 °C 8.8 °C 1017.5 hPa South 1.6 km/h 11.3 km/h 63% 0.3 mm
15:24 16 °C 9.4 °C 1017.5 hPa Calm   11.3 km/h 65% 0.3 mm
15:29 16.3 °C 9 °C 1017.5 hPa Calm   11.3 km/h 62% 0.3 mm
15:34 15.8 °C 8.6 °C 1017.2 hPa East 3.2 km/h 11.3 km/h 62% 0.3 mm
15:39 15.8 °C 8.8 °C 1017.5 hPa Calm   11.3 km/h 63% 0.3 mm
15:44 15.8 °C 8.6 °C 1017.5 hPa Calm   9.7 km/h 62% 0.3 mm
15:49 15.9 °C 8.8 °C 1017.2 hPa Calm     63% 0.3 mm
15:54 16.1 °C 9.3 °C 1017.2 hPa Calm   1.6 km/h 64% 0.3 mm
15:59 16.2 °C 8.7 °C 1017.2 hPa South 1.6 km/h 11.3 km/h 61% 0.3 mm
16:04 16.2 °C 8.9 °C 1017.2 hPa South 3.2 km/h 11.3 km/h 62% 0.3 mm
16:09 16 °C 8.5 °C 1017.2 hPa Calm   12.9 km/h 61% 0.3 mm
16:14 16.2 °C 8.9 °C 1017.2 hPa Calm   12.9 km/h 62% 0.3 mm
16:19 16.2 °C 8.9 °C 1017.2 hPa SSE 1.6 km/h 14.5 km/h 62% 0.3 mm
16:24 16.1 °C 8.8 °C 1017.2 hPa South 3.2 km/h 14.5 km/h 62% 0.3 mm
16:29 15.9 °C 8.4 °C 1017.2 hPa SSW 3.2 km/h 14.5 km/h 61% 0.3 mm
16:34 16 °C 8.7 °C 1017.2 hPa SSW 3.2 km/h 14.5 km/h 62% 0.3 mm
16:39 16.4 °C 9.2 °C 1016.8 hPa Calm   11.3 km/h 62% 0.3 mm
16:44 16.4 °C 8.4 °C 1016.8 hPa SSW 9.7 km/h 16.1 km/h 59% 0.3 mm
16:49 15.8 °C 8.1 °C 1016.8 hPa SSE 9.7 km/h 16.1 km/h 60% 0.3 mm
16:54 15.4 °C 7.9 °C 1016.8 hPa SSW 6.4 km/h 16.1 km/h 61% 0.3 mm
16:59 15.7 °C 8.9 °C 1016.8 hPa Calm   12.9 km/h 64% 0.3 mm
17:04 16.2 °C 8.7 °C 1017.2 hPa Calm   9.7 km/h 61% 0.3 mm
17:09 16.1 °C 8.6 °C 1017.2 hPa Calm   14.5 km/h 61% 0.3 mm
17:14 16 °C 8.5 °C 1017.2 hPa South 6.4 km/h 14.5 km/h 61% 0.3 mm
17:19 16.4 °C 8.6 °C 1017.2 hPa SSW 8 km/h 17.7 km/h 60% 0.3 mm
17:24 16.6 °C 8.5 °C 1017.2 hPa SSW 8 km/h 17.7 km/h 59% 0.3 mm
17:29 16.6 °C 8.5 °C 1017.2 hPa South 6.4 km/h 16.1 km/h 59% 0.3 mm
17:34 16.4 °C 8.4 °C 1017.2 hPa SSW 4.8 km/h 14.5 km/h 59% 0.3 mm
17:44 15.6 °C 8.1 °C 1017.2 hPa SSW 3.2 km/h 20.9 km/h 61% 0.3 mm
17:49 15.3 °C 8.1 °C 1017.2 hPa SSE 3.2 km/h 20.9 km/h 62% 0.3 mm
17:54 15.2 °C 8 °C 1017.2 hPa South 4.8 km/h 16.1 km/h 62% 0.3 mm
17:59 15.3 °C 8.1 °C 1017.2 hPa SSW 4.8 km/h 16.1 km/h 62% 0.3 mm
18:04 15.4 °C 8.2 °C 1017.2 hPa SSW 8 km/h 19.3 km/h 62% 0.3 mm
18:09 15.2 °C 8 °C 1017.2 hPa SSW 3.2 km/h 19.3 km/h 62% 0.3 mm
18:14 15 °C 8.2 °C 1017.2 hPa SSW 3.2 km/h 17.7 km/h 64% 0.3 mm
18:19 14.9 °C 8.2 °C 1017.2 hPa SW 1.6 km/h 16.1 km/h 64% 0.3 mm
18:24 14.6 °C 7.8 °C 1017.2 hPa SSE 4.8 km/h 16.1 km/h 64% 0.3 mm
18:29 14.5 °C 8 °C 1016.8 hPa Calm   16.1 km/h 65% 0.3 mm
18:39 14.1 °C 7.8 °C 1017.2 hPa South 3.2 km/h 16.1 km/h 66% 0.3 mm
18:44 14 °C 7.8 °C 1017.2 hPa South 3.2 km/h 16.1 km/h 66% 0.3 mm
18:49 13.8 °C 7.8 °C 1017.2 hPa South 3.2 km/h 12.9 km/h 67% 0.3 mm
18:54 13.6 °C 7.8 °C 1017.2 hPa SSW 3.2 km/h 12.9 km/h 68% 0.3 mm
18:59 13.3 °C 7.6 °C 1017.2 hPa SSW 3.2 km/h 11.3 km/h 68% 0.3 mm
19:09 12.9 °C 7.6 °C 1017.2 hPa SSE 1.6 km/h 19.3 km/h 70% 0.3 mm
19:14 12.7 °C 7.4 °C 1017.2 hPa South 1.6 km/h 14.5 km/h 70% 0.3 mm
19:19 12.6 °C 7.5 °C 1017.2 hPa South 6.4 km/h 14.5 km/h 71% 0.3 mm
19:24 12.5 °C 7.4 °C 1017.2 hPa South 6.4 km/h 16.1 km/h 71% 0.3 mm
19:29 12.4 °C 7.5 °C 1016.8 hPa South 4.8 km/h 16.1 km/h 72% 0.3 mm
19:34 12.3 °C 7.4 °C 1017.2 hPa South 4.8 km/h 11.3 km/h 72% 0.3 mm
19:39 12.2 °C 7.3 °C 1016.8 hPa South 1.6 km/h 11.3 km/h 72% 0.3 mm
19:44 12.2 °C 7.3 °C 1016.8 hPa South 4.8 km/h 14.5 km/h 72% 0.3 mm
19:49 12.1 °C 7.4 °C 1016.8 hPa SSE 8 km/h 14.5 km/h 73% 0.3 mm
19:54 12.1 °C 7.4 °C 1016.8 hPa Calm   14.5 km/h 73% 0.3 mm
19:59 12.1 °C 7.4 °C 1016.8 hPa South 1.6 km/h 12.9 km/h 73% 0.3 mm
20:04 12 °C 7.3 °C 1016.5 hPa SSE 1.6 km/h 12.9 km/h 73% 0.3 mm
20:09 11.9 °C 7.4 °C 1016.5 hPa South 1.6 km/h 11.3 km/h 74% 0.3 mm
20:14 11.8 °C 7.3 °C 1016.5 hPa SSE 4.8 km/h 12.9 km/h 74% 0.3 mm
20:19 11.8 °C 7.3 °C 1016.8 hPa Calm   12.9 km/h 74% 0.3 mm
20:24 11.7 °C 7.4 °C 1016.8 hPa South 1.6 km/h 11.3 km/h 75% 0.3 mm
20:29 11.6 °C 7.3 °C 1017.2 hPa South 3.2 km/h 11.3 km/h 75% 0.3 mm
20:34 11.6 °C 7.3 °C 1016.8 hPa SSW 3.2 km/h 11.3 km/h 75% 0.3 mm
20:39 11.4 °C 7.2 °C 1016.8 hPa South 3.2 km/h 11.3 km/h 75% 0.3 mm
20:44 11.3 °C 7.1 °C 1016.8 hPa SSE 1.6 km/h 11.3 km/h 75% 0.3 mm
20:49 11.3 °C 7.2 °C 1016.8 hPa SSE 1.6 km/h 14.5 km/h 76% 0.3 mm
20:54 11.2 °C 7.1 °C 1016.8 hPa SSW 4.8 km/h 16.1 km/h 76% 0.3 mm
20:59 11.1 °C 7 °C 1016.8 hPa SSW 3.2 km/h 16.1 km/h 76% 0.3 mm
21:04 11 °C 7.1 °C 1016.8 hPa SSW 3.2 km/h 12.9 km/h 77% 0.3 mm
21:09 11 °C 7.1 °C 1016.8 hPa SSE 1.6 km/h 12.9 km/h 77% 0.3 mm
21:14 11 °C 7.1 °C 1016.8 hPa South 8 km/h 12.9 km/h 77% 0.3 mm
21:19 11.1 °C 7.2 °C 1017.2 hPa SSW 6.4 km/h 20.9 km/h 77% 0.3 mm
21:24 11.1 °C 7.2 °C 1017.2 hPa South 6.4 km/h 20.9 km/h 77% 0.3 mm
21:29 11.1 °C 7.2 °C 1016.8 hPa SSW 4.8 km/h 16.1 km/h 77% 0.3 mm
21:34 11 °C 7.1 °C 1016.8 hPa South 6.4 km/h 16.1 km/h 77% 0.3 mm
21:39 10.9 °C 7.3 °C 1016.8 hPa South 3.2 km/h 14.5 km/h 78% 0.3 mm
21:44 10.9 °C 7.3 °C 1016.5 hPa South 6.4 km/h 19.3 km/h 78% 0.3 mm
21:49 10.9 °C 7.3 °C 1016.5 hPa South 6.4 km/h 19.3 km/h 78% 0.3 mm
21:54 10.9 °C 7.2 °C 1016.5 hPa SSW 6.4 km/h 16.1 km/h 78% 0.3 mm
21:59 10.8 °C 7.2 °C 1016.5 hPa South 3.2 km/h 14.5 km/h 78% 0.3 mm
22:04 10.8 °C 7.2 °C 1016.1 hPa South 6.4 km/h 14.5 km/h 78% 0.3 mm
22:09 10.8 °C 7.2 °C 1016.5 hPa South 3.2 km/h 17.7 km/h 78% 0.3 mm
22:14 10.8 °C 7.2 °C 1016.5 hPa South 4.8 km/h 17.7 km/h 78% 0.3 mm
22:24 10.8 °C 7.2 °C 1016.5 hPa South 1.6 km/h 9.7 km/h 78% 0.3 mm
22:29 10.8 °C 7.3 °C 1016.8 hPa SSW 1.6 km/h 9.7 km/h 79% 0.3 mm
22:34 10.8 °C 7.3 °C 1016.8 hPa SSW 6.4 km/h 17.7 km/h 79% 0.3 mm
22:39 10.8 °C 7.3 °C 1016.8 hPa South 1.6 km/h 17.7 km/h 79% 0.3 mm
22:44 10.8 °C 7.3 °C 1016.8 hPa SSW 3.2 km/h 16.1 km/h 79% 0.3 mm
22:49 10.8 °C 7.3 °C 1016.8 hPa SW 1.6 km/h 16.1 km/h 79% 0.3 mm
22:54 10.8 °C 7.3 °C 1016.8 hPa SSW 8 km/h 12.9 km/h 79% 0.3 mm
22:59 10.8 °C 7.3 °C 1016.8 hPa SSW 8 km/h 16.1 km/h 79% 0.3 mm
23:04 10.7 °C 7.2 °C 1016.8 hPa SSW 4.8 km/h 16.1 km/h 79% 0.3 mm
23:09 10.7 °C 7.2 °C 1016.8 hPa SSW 6.4 km/h 16.1 km/h 79% 0.3 mm
23:14 10.6 °C 7.1 °C 1016.8 hPa SSW 4.8 km/h 14.5 km/h 79% 0.3 mm
23:19 10.6 °C 7.3 °C 1016.8 hPa SSW 3.2 km/h 14.5 km/h 80% 0.3 mm
23:24 10.6 °C 7.3 °C 1016.8 hPa SSW 6.4 km/h 14.5 km/h 80% 0.3 mm
23:29 10.6 °C 7.3 °C 1016.8 hPa SSW 4.8 km/h 14.5 km/h 80% 0.3 mm
23:34 10.6 °C 7.3 °C 1016.8 hPa SSW 6.4 km/h 14.5 km/h 80% 0.3 mm
23:39 10.6 °C 7.3 °C 1016.8 hPa SSW 6.4 km/h 19.3 km/h 80% 0.3 mm
23:44 10.6 °C 7.3 °C 1016.5 hPa SSW 4.8 km/h 19.3 km/h 80% 0.3 mm
23:49 10.6 °C 7.3 °C 1016.5 hPa South 8 km/h 22.5 km/h 80% 0.3 mm
23:54 10.5 °C 7.4 °C 1016.5 hPa South 8 km/h 22.5 km/h 81% 0.3 mm
23:59 10.4 °C 7.4 °C 1016.5 hPa South 4.8 km/h 16.1 km/h 82% 0.3 mm
Westford Weather
Compliments of Weather Underground

 
 
Current Radar Loop:

Copyright © WestfordWeather.net 2007-2014. All rights reserved.